GFSNW_925_thetae_015.txt.gz
Theta_e
297 296 296 297 298 301 308 306 304 303 311 308 303 308 308 306 303 302 305 308 307 308 306 305 310 313 308 305 305 307 310 315 310 307 306 307 308 312 307 308 308 309 308 307
297 296 296 297 299 301 304 300 299 302 302 298 295 298 300 303 302 304 303 304 305 304 305 302 303 306 306 303 304 304 306 307 306 301 302 304 304 305 304 305 306 305 305 303
300 296 295 297 298 300 304 296 295 295 297 296 298 299 300 300 302 303 302 303 303 303 303 303 302 304 304 303 304 306 307 309 308 305 305 307 306 305 305 306 306 306 306 306
301 298 295 296 298 300 301 296 301 299 295 299 300 299 300 301 304 302 300 302 303 304 305 304 304 303 301 303 304 304 305 306 305 305 304 305 305 305 305 305 305 306 306 306
302 301 297 296 297 298 301 297 297 294 297 298 297 297 299 303 303 302 301 302 302 302 303 303 302 302 303 304 303 304 303 305 305 305 303 303 303 304 304 304 304 305 306 307
303 302 301 297 297 298 301 300 300 293 297 297 295 298 302 302 301 299 301 301 302 302 302 301 301 301 302 302 302 302 303 303 304 304 303 303 305 304 301 301 301 303 306 306
302 303 303 301 298 300 302 302 299 294 296 298 298 301 301 301 300 300 300 300 301 300 299 298 299 299 300 301 301 302 303 303 303 304 302 304 302 301 301 302 303 303 304 307
302 301 302 302 301 298 300 302 301 296 297 297 299 300 300 299 299 300 300 300 299 299 298 301 301 300 299 300 299 300 302 303 304 304 302 303 302 301 301 302 304 304 305 304
303 302 301 302 301 300 300 302 302 299 297 297 299 300 300 299 299 299 299 298 298 298 300 301 295 301 300 300 301 300 300 301 303 303 304 304 301 300 301 303 305 304 303 304
303 302 302 301 301 301 300 300 300 299 297 296 298 298 298 297 298 300 298 298 298 297 299 301 300 300 299 302 302 303 301 300 302 302 304 303 300 300 304 303 304 303 303 304
303 302 302 301 301 303 302 301 301 299 295 295 297 298 298 298 298 300 297 298 297 298 301 301 300 298 300 301 301 302 301 301 301 301 301 301 300 301 302 303 303 303 303 303
302 302 301 301 302 303 303 302 301 301 301 299 300 300 300 300 299 297 298 298 298 298 300 300 300 300 298 300 301 298 301 302 302 302 302 300 300 301 301 302 303 303 303 302
302 302 301 301 302 302 303 302 302 301 301 299 298 298 300 300 300 300 299 296 298 298 298 300 301 301 298 302 300 299 298 299 302 301 301 301 301 301 301 301 302 302 302 301
302 302 302 302 302 302 302 302 301 301 301 300 297 299 299 299 299 299 299 297 297 297 298 302 302 302 300 300 300 300 300 301 302 302 301 301 301 302 302 302 301 300 300 300
303 302 301 302 302 302 301 301 302 302 301 297 297 299 299 299 299 298 298 298 297 296 300 300 300 301 301 301 301 301 300 301 303 303 302 303 303 302 301 300 299 299 299 300
302 301 301 302 303 302 301 297 300 300 301 299 297 297 297 299 298 297 296 296 296 296 298 299 299 299 302 303 302 299 300 302 303 303 302 301 301 300 299 299 299 299 298 299
302 301 301 302 303 302 301 297 299 300 301 299 299 299 296 296 297 297 296 296 295 295 296 301 299 300 301 303 303 301 299 299 299 299 300 300 299 300 300 300 298 298 297 297
302 301 301 303 303 301 301 300 300 300 301 300 300 300 295 296 296 297 294 296 295 298 301 300 301 302 302 303 299 299 300 300 300 300 300 300 300 299 300 297 296 297 297 297
301 301 302 302 301 300 301 301 301 301 301 300 298 298 294 293 294 293 293 295 299 296 300 302 301 302 302 300 299 300 300 300 300 300 299 298 298 297 296 296 295 295 296 296
301 302 300 299 301 300 301 299 299 300 301 299 300 298 296 294 291 290 290 290 299 300 295 296 302 301 299 298 300 302 301 298 297 297 297 296 295 295 294 294 294 295 295 296
302 299 299 299 299 298 297 296 299 299 301 299 300 298 299 293 296 295 293 298 298 300 297 297 299 297 297 299 299 298 297 296 295 295 294 294 293 293 293 293 294 294 296 295
301 299 299 299 297 295 297 298 298 300 299 295 298 297 297 294 293 299 298 298 298 297 295 299 299 296 299 297 296 295 294 293 293 292 292 292 292 292 293 293 294 295 293 293
299 299 298 297 296 299 299 298 298 299 297 294 296 297 295 296 297 299 298 298 297 295 296 299 297 298 297 295 294 293 292 292 292 292 292 292 293 293 293 295 293 293 293 294
298 299 298 298 297 297 297 298 297 296 295 296 296 297 298 297 298 298 298 297 295 297 298 296 294 295 294 293 292 291 292 293 293 293 293 293 294 293 292 293 294 293 293 293
298 297 297 297 295 293 294 293 294 293 295 295 294 293 294 296 296 297 296 297 297 295 296 292 294 293 291 291 291 292 293 294 294 293 294 292 292 292 293 293 293 292 292 291
297 296 297 294 294 293 292 293 295 294 293 292 293 292 295 296 296 295 296 295 296 294 295 294 292 290 292 292 293 294 293 294 293 294 292 293 293 293 293 292 292 292 292 291
297 298 296 293 294 294 294 294 293 293 294 294 294 291 294 293 292 294 294 296 293 295 293 290 289 292 293 293 294 293 293 293 293 293 293 293 292 292 292 292 292 291 292 291

GFSNW_925_thetae_021.txt.gz
Theta_e
296 296 297 298 302 310 312 314 312 305 307 314 315 318 311 306 306 306 310 310 310 310 307 305 307 310 311 307 308 306 306 305 304 306 307 305 305 307 309 309 309 309 310 310
296 296 296 297 299 304 310 309 307 305 307 310 307 307 306 306 306 306 306 308 306 305 306 304 305 306 309 307 305 305 305 306 307 309 310 308 309 309 306 307 310 310 308 307
296 296 297 297 298 301 307 308 311 307 307 307 307 306 305 306 306 305 306 306 306 305 305 305 305 305 305 306 304 304 305 305 305 307 308 307 307 307 306 305 309 307 306 305
296 296 297 298 298 300 307 310 307 306 308 305 305 305 304 305 306 305 304 305 305 304 303 304 304 305 304 304 305 305 305 306 307 306 306 305 305 305 304 305 305 305 305 304
296 296 297 298 299 304 306 309 308 305 305 304 305 303 305 305 304 303 303 303 305 304 304 304 304 303 304 304 305 304 305 306 306 306 304 304 304 304 304 304 304 304 303 303
297 296 297 298 299 305 305 304 303 308 302 304 304 305 305 304 303 303 304 303 303 304 304 304 304 304 304 304 305 305 305 306 306 306 304 304 305 305 304 303 303 303 304 304
300 297 299 298 298 303 304 304 304 307 305 305 305 304 304 304 303 303 303 303 303 304 303 302 303 303 303 303 304 304 305 305 306 307 305 307 305 304 304 303 303 303 303 304
301 299 299 299 299 302 304 304 306 306 306 305 304 304 304 303 303 303 304 303 303 302 302 305 305 306 304 304 304 304 304 305 306 307 306 305 304 303 303 303 304 304 304 306
302 301 300 299 300 301 304 303 304 306 306 305 304 304 304 305 305 304 304 302 301 302 304 306 308 307 304 304 303 303 303 303 307 306 308 307 304 303 303 303 305 305 305 305
302 302 301 300 301 301 305 304 304 305 307 304 304 305 305 304 304 303 303 303 303 302 305 307 308 307 303 304 303 303 304 304 307 308 310 306 303 303 303 305 305 305 305 304
303 302 301 300 301 302 305 304 303 304 306 305 302 303 303 304 304 303 304 303 303 304 305 306 306 306 305 304 303 303 304 304 304 303 306 304 303 303 303 304 304 305 304 305
303 302 302 301 301 303 303 305 303 303 305 306 303 301 302 302 303 303 303 304 303 304 306 305 306 306 305 305 306 303 303 303 305 304 305 303 303 303 304 305 304 305 305 304
303 302 302 302 301 303 303 304 304 303 304 305 304 304 302 301 301 302 304 304 303 303 303 305 305 305 304 304 303 302 302 302 304 305 303 302 302 302 303 305 304 304 303 303
303 303 302 302 302 302 303 304 304 303 303 305 306 301 301 302 301 301 301 303 301 302 303 303 305 304 303 303 303 303 302 302 302 303 302 302 303 303 303 303 303 302 302 302
304 303 302 302 301 301 303 305 305 303 303 306 304 302 301 301 301 301 301 302 302 302 302 303 303 302 302 302 302 304 303 303 303 305 302 304 304 303 302 302 302 301 301 302
303 302 303 303 301 301 305 304 303 303 303 303 304 303 301 301 300 301 301 302 302 302 301 301 301 301 302 304 303 302 301 301 302 303 303 304 303 302 301 301 300 300 300 300
303 303 303 302 301 302 304 305 302 302 302 303 304 304 302 301 301 301 302 302 302 301 300 301 301 301 302 304 305 302 302 302 303 303 302 302 301 300 300 299 298 297 296 296
304 303 302 301 300 301 303 303 301 302 302 302 304 304 301 300 302 304 302 302 301 300 301 301 302 302 303 304 302 302 302 303 302 302 301 300 299 298 297 296 296 296 296 296
304 303 302 300 301 303 302 302 302 301 302 303 303 303 307 299 303 304 303 303 302 302 301 301 301 302 304 302 302 302 303 302 300 299 298 297 297 296 295 295 295 296 296 296
304 303 302 302 303 302 301 301 302 302 302 302 302 302 304 301 303 304 304 302 303 301 302 301 302 302 302 302 302 301 300 299 298 297 297 296 295 296 296 295 296 296 296 296
303 302 302 301 300 301 301 302 303 301 302 301 302 302 302 300 303 304 303 304 302 301 301 301 302 301 301 302 301 300 299 297 296 296 295 295 295 295 295 295 295 294 294 295
302 301 299 300 299 300 302 302 301 300 303 303 302 301 301 300 301 303 301 302 301 302 301 301 301 301 302 301 300 299 297 296 296 295 295 294 294 294 294 294 293 294 293 293
300 298 299 300 299 303 301 303 301 303 301 302 300 301 299 299 301 302 301 299 300 300 300 301 301 302 302 300 298 297 296 296 295 294 294 294 293 293 293 294 293 293 293 293
298 298 301 302 302 302 305 305 305 303 303 301 301 301 300 300 300 301 300 300 300 301 301 302 302 303 302 298 297 296 296 295 294 294 293 293 293 293 293 292 292 293 293 293
297 299 303 302 303 304 304 304 303 301 301 301 300 300 300 299 300 300 301 300 301 300 301 302 302 302 299 297 297 296 296 295 294 294 294 293 293 293 292 292 292 291 292 292
297 299 303 304 304 304 302 302 301 300 301 301 301 301 302 302 301 301 300 300 300 301 301 302 302 299 297 297 296 296 295 294 294 294 293 293 292 292 292 291 292 291 292 292
297 302 302 305 305 305 303 301 301 300 301 302 302 302 302 301 301 300 299 300 300 301 301 301 299 298 297 297 296 295 294 294 294 294 293 292 292 291 291 292 291 292 292 292

GFSNW_925_thetae_024.txt.gz
Theta_e
297 297 298 299 305 314 313 315 316 306 308 316 316 318 313 307 306 307 309 310 310 310 307 307 307 310 312 308 308 305 306 305 304 306 307 307 306 305 306 312 311 309 308 308
297 297 298 299 300 305 310 312 311 307 309 311 310 309 307 308 307 307 308 308 306 305 307 306 306 307 309 308 305 305 305 305 305 309 310 309 309 309 309 307 309 309 309 308
297 297 298 299 300 302 309 312 314 310 309 309 309 308 306 307 306 305 306 307 306 306 306 306 306 306 307 307 305 305 305 304 304 307 307 307 307 307 306 306 307 306 306 305
296 297 298 300 303 305 310 311 308 308 310 307 306 307 306 307 308 305 305 306 305 304 304 305 305 306 305 305 306 305 306 306 306 306 306 306 305 305 305 304 304 305 304 304
296 297 298 299 305 307 307 312 311 308 306 305 306 304 306 306 304 304 304 304 306 304 304 305 304 305 304 305 305 305 305 306 306 307 306 305 305 305 304 304 305 304 304 303
297 297 297 299 303 307 307 306 306 309 303 305 306 307 306 306 303 304 305 304 303 305 306 305 304 303 303 304 304 305 305 307 308 307 305 305 306 305 304 304 304 303 303 303
299 297 298 299 302 305 305 306 308 311 308 307 307 305 305 304 304 305 304 304 304 305 303 303 303 303 303 303 303 304 305 306 306 307 306 307 306 304 304 304 303 303 304 305
300 299 298 299 301 305 305 305 307 309 310 307 305 305 304 304 303 303 304 304 303 303 302 305 307 307 306 305 305 305 304 304 306 306 307 305 305 304 304 303 303 304 305 305
301 300 300 299 301 305 306 304 306 307 310 308 305 304 304 306 305 305 304 303 302 302 304 308 309 312 305 305 303 304 304 304 305 305 305 306 305 304 304 304 303 304 303 303
303 301 300 299 301 303 306 305 304 307 310 307 304 305 306 305 306 305 304 303 303 303 307 310 312 310 305 305 304 304 304 305 305 306 306 306 305 303 303 302 302 302 302 303
303 302 301 300 300 302 306 306 304 305 308 307 304 304 305 304 305 305 304 304 303 304 306 310 310 310 307 306 305 304 305 305 305 305 305 304 304 302 302 302 302 302 304 304
303 302 300 300 299 302 304 306 305 304 306 307 305 303 303 303 304 304 304 305 304 305 307 308 310 309 308 305 306 304 304 303 305 304 304 303 302 302 302 302 304 304 303 302
304 303 302 299 300 301 302 304 304 304 305 306 305 305 304 302 302 302 304 304 304 303 304 305 308 308 305 305 304 303 302 302 302 303 302 302 302 302 302 302 303 302 302 302
304 303 302 302 301 301 302 304 304 303 304 305 307 303 302 302 302 302 302 303 302 303 303 305 307 306 303 303 303 302 302 302 301 301 302 302 302 302 303 302 301 301 301 301
305 304 303 302 302 300 300 302 303 305 303 306 305 303 302 301 302 301 301 301 303 303 304 304 305 302 303 303 302 303 301 301 302 303 301 301 302 302 301 301 300 299 299 298
305 304 304 302 302 301 304 305 305 304 303 303 305 304 302 301 301 301 302 302 302 303 303 302 301 301 302 303 303 301 301 301 301 301 302 302 302 301 300 299 299 297 296 295
305 305 304 302 303 301 304 304 302 302 302 304 305 305 303 301 301 301 302 302 303 302 301 301 301 301 302 303 302 301 301 301 301 301 301 301 300 299 297 296 295 295 295 295
307 305 304 303 302 301 301 303 302 302 302 303 305 303 303 301 302 302 302 303 301 300 301 301 302 302 302 302 301 301 301 301 302 301 299 298 297 296 295 295 295 295 295 295
308 305 304 303 301 301 302 302 303 301 302 302 301 303 308 300 302 303 302 301 302 301 300 301 301 302 303 302 301 301 301 302 300 299 297 296 295 295 295 294 294 294 295 294
307 304 302 302 302 302 302 301 302 302 302 302 303 301 305 301 303 304 304 302 303 304 303 301 302 301 301 300 301 301 301 300 298 297 296 295 295 294 295 294 294 294 293 294
305 302 302 302 302 301 302 302 303 302 302 301 301 301 303 300 303 305 303 304 302 302 301 302 302 302 300 300 300 300 299 298 297 296 295 294 294 294 294 294 293 293 293 293
304 301 301 300 300 301 302 302 302 302 303 303 303 302 302 301 301 303 303 303 302 303 301 301 301 300 302 301 301 300 299 297 296 296 295 294 294 294 293 293 293 292 293 292
300 299 299 299 299 301 302 302 304 303 302 303 302 302 300 300 301 303 302 300 301 300 300 300 300 303 302 301 300 298 297 296 296 295 294 294 293 293 293 292 292 292 291 291
297 297 299 302 301 301 302 303 305 303 303 302 301 300 300 301 301 301 300 300 300 302 301 301 300 302 302 300 298 296 296 296 295 294 294 293 293 293 293 292 292 291 291 291
297 297 303 301 303 303 304 304 305 304 302 301 301 301 300 300 301 301 301 301 300 300 301 301 302 301 301 298 296 296 296 295 294 294 294 293 293 292 292 291 291 291 291 292
295 296 302 303 304 304 305 305 304 302 301 300 302 301 302 301 302 301 301 301 301 301 300 301 301 300 298 296 296 296 296 295 294 294 293 293 293 292 292 291 291 291 292 292
297 299 300 303 306 305 305 304 302 301 300 302 302 302 303 302 302 301 300 301 300 300 300 300 300 299 297 296 296 296 295 294 294 293 293 293 293 292 292 291 291 291 292 292

GFSNW_925_thetae_030.txt.gz
Theta_e
299 301 303 301 310 313 312 309 302 306 307 305 301 306 308 306 306 305 307 306 305 306 305 304 306 311 309 306 304 304 302 301 301 301 301 304 303 303 301 301 302 303 300 303
299 300 304 304 303 306 309 300 301 306 306 303 302 305 305 305 306 305 306 306 305 304 304 304 304 309 308 304 303 301 301 298 297 301 305 304 305 305 304 303 301 301 303 304
299 300 301 305 305 308 309 303 305 301 297 297 301 303 305 303 304 304 304 305 304 304 304 303 304 308 308 304 303 307 302 299 297 300 301 303 304 304 304 303 297 302 303 304
298 300 301 302 307 308 307 298 301 302 300 300 301 301 305 304 305 303 303 304 303 302 302 303 304 304 304 305 306 304 302 303 303 303 303 304 304 304 304 303 303 302 303 302
298 299 301 303 304 306 305 303 300 297 298 299 302 301 303 304 302 302 302 303 303 302 302 302 303 303 302 302 304 303 301 301 303 303 303 303 304 304 304 304 303 303 303 303
299 298 299 301 304 304 305 305 304 298 299 299 301 302 304 303 301 302 303 303 302 302 302 302 302 300 300 301 301 301 301 302 301 300 301 302 301 302 303 303 302 302 301 301
298 298 298 300 301 302 306 306 304 301 302 301 303 303 303 301 302 303 302 301 301 302 300 300 300 299 299 298 299 299 300 301 299 298 300 298 300 301 301 302 302 302 302 301
299 298 298 300 303 301 303 305 305 301 300 300 303 303 302 301 300 302 302 301 300 300 300 301 302 302 302 303 301 299 299 300 298 297 298 300 301 302 302 302 301 301 301 301
302 300 298 298 303 304 302 302 306 303 300 301 302 301 301 299 300 301 301 300 299 299 300 303 299 303 304 302 302 300 299 299 298 300 296 298 299 302 301 300 300 300 300 299
304 302 300 298 300 304 305 304 304 304 302 302 301 300 300 299 299 300 300 301 301 299 300 302 301 304 303 302 302 301 300 299 301 301 295 300 300 300 299 300 299 298 299 300
306 304 302 301 299 304 304 305 302 301 300 301 303 303 301 300 298 299 298 299 298 298 300 299 301 299 301 302 300 300 300 298 298 299 297 301 300 300 300 298 298 300 300 299
308 306 304 302 300 300 301 303 303 302 301 298 305 305 303 302 301 299 297 299 298 299 298 298 295 300 296 300 301 299 301 299 298 299 299 299 298 299 298 299 300 300 298 297
310 308 305 303 301 299 300 303 303 302 299 299 301 302 305 304 302 302 300 298 299 299 298 298 297 299 297 299 299 300 300 298 299 299 299 298 298 297 299 300 299 298 297 296
311 310 307 304 303 301 301 301 302 303 300 301 303 303 303 303 303 302 302 301 301 299 297 298 295 297 297 296 299 298 300 298 298 297 298 298 298 298 300 299 298 296 294 294
309 310 309 306 304 302 302 301 300 303 301 301 301 301 302 302 302 302 301 301 299 298 300 298 299 297 297 296 296 296 299 300 298 300 297 297 296 298 299 298 295 293 293 293
307 308 309 308 305 303 301 304 304 303 303 299 297 299 301 301 301 301 300 300 298 299 300 299 298 297 299 296 294 298 299 298 298 298 297 296 296 298 295 294 293 293 293 293
302 304 308 308 306 303 302 304 303 304 304 300 298 296 298 300 300 300 299 300 299 299 300 299 298 298 299 292 299 300 299 298 297 296 296 298 298 295 293 293 293 293 293 293
302 303 306 307 306 303 302 301 302 304 302 301 301 297 297 300 298 299 298 298 299 300 300 299 300 299 299 300 300 299 298 297 297 296 295 296 294 293 293 293 292 292 292 292
301 301 304 307 305 303 302 302 302 302 301 301 299 301 295 296 297 297 297 296 296 297 297 300 298 296 300 301 300 298 297 297 297 297 295 293 293 293 292 292 291 292 293 292
301 302 305 304 302 302 303 300 302 302 302 302 302 296 295 295 293 291 295 291 294 301 299 297 300 299 299 300 299 299 297 297 296 297 295 293 293 292 292 292 292 293 292 292
302 302 303 302 302 302 302 303 303 302 302 301 302 301 297 295 300 301 299 299 300 299 297 299 296 297 298 298 298 298 297 295 295 294 293 292 292 291 291 292 292 292 292 291
302 301 300 302 301 299 301 302 301 301 301 300 302 300 300 298 299 302 301 303 299 299 295 296 298 296 297 296 296 296 295 294 293 293 292 292 292 292 292 292 292 292 291 290
301 299 297 297 297 299 302 300 300 300 298 299 300 299 300 299 300 302 302 302 300 294 297 299 298 298 296 295 295 295 293 293 293 292 293 293 292 293 292 292 292 291 291 290
299 298 296 295 299 299 299 296 296 296 296 298 298 298 300 299 301 301 303 300 297 295 295 297 297 298 295 296 294 293 293 292 292 291 292 292 292 292 292 292 291 291 291 290
298 296 297 294 295 294 295 294 295 297 296 299 299 298 299 300 301 300 300 300 298 296 297 296 298 295 293 295 294 293 292 291 291 291 291 292 292 292 292 292 291 291 290 290
298 296 297 296 296 297 295 295 295 296 298 296 297 300 300 301 300 301 299 297 297 297 296 298 297 294 293 294 295 294 291 291 291 292 292 292 292 292 292 292 291 291 290 291
296 297 297 296 297 298 296 296 297 298 299 301 300 301 301 299 301 298 295 296 296 298 298 298 296 294 294 293 293 291 292 291 291 292 292 292 293 292 292 292 291 291 290 291

GFSNW_925_thetae_033.txt.gz
Theta_e
301 302 304 304 309 313 312 306 302 304 306 305 299 306 307 305 305 304 306 305 305 306 304 303 307 310 309 306 303 302 302 300 300 300 300 301 302 302 300 302 302 301 299 303
301 301 303 305 305 307 309 299 299 305 305 303 302 304 304 304 305 304 306 305 304 303 304 303 305 308 307 303 302 302 299 297 298 301 303 304 304 304 302 300 299 300 302 302
301 302 302 306 306 309 308 301 304 300 295 296 301 302 303 303 303 303 303 304 304 303 303 302 303 308 307 304 303 306 301 296 297 302 302 302 302 302 302 301 297 301 303 303
301 303 303 303 306 308 306 297 301 301 300 299 300 302 304 302 303 302 302 303 303 302 301 303 303 304 306 304 305 303 300 300 301 301 300 301 302 303 303 303 301 302 301 300
300 302 306 305 304 306 305 302 299 295 297 298 302 300 304 304 302 301 302 303 302 302 302 300 301 302 301 302 304 303 299 300 302 302 302 302 303 303 302 303 303 302 302 303
299 299 302 304 306 305 304 303 302 298 299 298 300 302 303 303 301 301 302 302 302 302 301 302 301 299 298 300 302 300 300 301 300 298 300 300 300 301 301 302 302 302 302 302
299 298 299 302 302 304 306 305 302 301 301 300 302 303 303 301 302 303 302 300 301 301 300 299 299 299 299 298 299 298 299 300 299 298 299 299 301 300 301 301 301 301 301 301
300 299 298 299 302 301 303 305 303 299 301 299 302 302 302 300 300 302 301 301 299 299 299 299 301 302 302 301 299 298 298 299 297 296 297 300 301 301 300 301 301 301 301 300
305 301 299 298 300 304 303 302 305 301 300 302 302 301 300 299 298 300 301 299 298 298 299 301 297 302 303 302 301 298 298 298 298 299 295 297 300 301 300 299 300 299 299 299
309 305 302 300 299 302 304 302 301 303 300 301 299 300 300 298 298 299 300 300 300 298 299 302 301 303 302 302 302 301 299 299 300 300 295 299 299 299 299 300 299 298 298 299
311 309 305 302 299 299 301 303 303 301 298 299 303 301 300 298 298 300 298 299 298 297 300 299 300 299 301 300 299 300 301 299 298 299 297 301 299 299 300 298 296 299 299 298
311 310 309 305 301 299 300 302 304 304 301 299 303 304 303 301 300 297 296 297 298 298 298 297 295 300 295 300 302 298 301 301 298 300 300 299 298 298 298 297 299 299 298 297
310 310 310 309 305 301 299 302 303 303 298 300 300 302 304 304 304 302 299 296 298 297 297 297 297 298 297 300 299 299 299 298 298 301 299 298 297 297 297 298 299 298 296 294
308 309 310 309 307 305 302 301 301 302 299 301 303 303 303 303 304 302 301 300 299 297 297 300 299 301 299 297 299 298 300 298 299 298 298 298 296 295 296 299 298 295 293 293
306 308 308 308 308 305 303 303 302 301 300 300 300 300 302 302 301 301 301 301 297 297 298 296 297 298 300 298 295 295 298 298 300 301 298 297 296 297 298 298 295 293 293 293
300 303 307 308 307 306 304 300 304 302 304 299 298 297 299 300 300 300 299 299 296 297 298 297 296 297 299 292 293 296 298 300 300 299 295 295 296 295 296 293 293 293 292 292
301 301 302 304 308 307 304 303 303 304 303 300 298 296 297 299 299 298 297 298 296 297 297 296 297 297 297 288 293 300 298 298 297 296 296 297 297 297 292 293 293 293 292 292
300 301 301 304 308 306 304 305 302 304 303 301 298 297 296 298 297 298 296 296 296 297 297 296 297 297 295 293 298 299 298 297 295 295 294 295 295 292 292 293 292 292 291 291
300 301 300 304 306 304 303 304 302 303 301 300 300 301 295 295 295 295 295 294 296 294 298 299 297 296 298 300 300 300 298 297 297 296 294 292 292 291 291 291 291 291 291 291
301 300 303 301 303 303 303 301 302 302 302 301 301 296 300 295 291 291 295 292 293 301 298 298 301 300 299 298 299 299 298 296 295 296 295 292 292 291 291 290 291 291 290 291
301 300 301 301 302 302 302 303 302 301 302 301 302 300 302 294 300 300 296 301 300 300 297 299 299 299 296 298 298 298 297 295 295 296 294 293 291 291 290 290 291 291 291 291
301 300 301 302 301 300 301 302 302 302 303 300 302 300 301 299 298 302 301 303 300 300 293 300 299 297 296 298 296 295 294 294 294 294 291 291 291 291 291 290 291 291 291 291
300 299 299 299 298 299 301 301 301 301 300 296 299 300 299 299 298 302 302 303 301 294 299 300 298 296 298 296 295 295 293 293 292 291 292 292 292 292 292 291 292 291 291 290
300 298 299 297 295 299 297 296 295 295 294 296 297 298 300 299 301 302 305 301 298 297 299 297 296 296 296 296 295 295 294 291 291 291 291 291 291 291 292 292 292 291 291 290
298 297 298 294 294 293 293 293 294 294 294 297 298 299 300 300 301 301 302 299 297 296 297 296 298 297 295 295 295 294 292 290 290 290 290 290 291 291 291 292 292 291 291 290
296 296 297 294 293 295 292 292 294 293 295 294 295 297 299 299 300 301 297 296 296 296 296 297 297 297 297 297 295 293 291 290 290 291 291 291 291 291 291 292 291 291 291 290
296 297 296 295 294 295 292 293 294 295 296 297 300 300 300 299 297 300 298 296 296 297 298 297 298 300 302 300 293 292 291 291 291 291 291 292 292 292 291 290 292 291 291 290